Weather in Novopokrovka

Russia / Tambov Oblast     52°08′05″N   40°52′42″E
temp.,
°C
wind,
m/s
gust,
m/s
humid.,
%
clouds,
%
prec.,
mm/h
press.,
hPa
HPBL,
m
2 july, sat
sat200:00+9n6127083 0.0 1017457
03:00+9n817710 0.0 1016524
06:00+11n716820 0.0 1016512
09:00+16n811696 0.0 1016933
12:00+20n9125573 0.0 10162153
15:00+19n91361100 0.1 10161402
18:00+20n7125952 0.0 10151018
21:00+14nnw410750 0.0 1016160
3 july, sun
sun300:00+13nnw47780 0.0 101697
03:00+12nnw46810 0.0 101593
06:00+15nw3877100 0.0 1015220
09:00+18nw587165 0.0 1014341
12:00+21nnw476998 0.9 1014712
15:00+23nnw45595 1.6 10131224
18:00+23nnw356858 1.4 1013399
21:00+18n117741 1.4 101311
4 july, mon
mon400:00+17nne357924 0.0 101472
03:00+14nne35940 0.0 101490
06:00+16nne38903 0.0 1015241
09:00+21nne56675 0.0 1016948
12:00+23nne565363 0.0 10161903
15:00+24ene5549100 0.0 10151586
18:00+22ese246598 0.0 1016115
21:00+19ssw226382 0.0 101615
5 july, tue
tue500:00+17wsw236570 0.0 101726
03:00+18w226393 0.0 101737
06:00+18w227379 0.0 101742
09:00+22nnw346673 0.0 1017414
12:00+26nnw34525 0.0 10171552
15:00+26nw1256100 0.0 1017679
18:00+25w225972 0.0 1017155
21:00+20sw226865 0.0 101711
6 july, wed
wed600:00+20ssw226696 0.0 101716
03:00+19sw347193 0.0 101758
06:00+19ssw357712 0.0 1018129
09:00+21sw347693 0.0 1018242
12:00+27sw445499 0.0 10171196
15:00+28sw4453100 0.0 10171572
18:00+26ssw46654 0.2 1016413
21:00+21s45785 0.3 101775